Time,TemperatureF,DewpointF,PressureIn,WindDirection,WindDirectionDegrees,WindSpeedMPH,WindSpeedGustMPH,Humidity,HourlyPrecipIn,Conditions,Clouds,dailyrainin,SoftwareType,DateUTC
2013-07-29 00:05:00,84.0,72.3,29.94,SSW,202,5.8,-999.0,68,-99.99,,,0.00,Acu-Link.com,2013-07-29 05:05:00,
2013-07-29 00:20:00,83.7,72.0,29.94,NNW,337,4.3,-999.0,68,-99.99,,,0.00,Acu-Link.com,2013-07-29 05:20:00,
2013-07-29 00:36:00,83.3,72.0,29.94,SSE,157,3.8,-999.0,69,-99.99,,,0.00,Acu-Link.com,2013-07-29 05:36:00,
2013-07-29 00:51:00,82.9,72.1,29.94,East,90,3.8,-999.0,70,-99.99,,,0.00,Acu-Link.com,2013-07-29 05:51:00,
2013-07-29 01:06:00,82.8,72.4,29.94,ESE,112,2.2,-999.0,71,-99.99,,,0.00,Acu-Link.com,2013-07-29 06:06:00,
2013-07-29 01:22:00,82.4,72.4,29.94,ESE,112,3.8,-999.0,72,-99.99,,,0.00,Acu-Link.com,2013-07-29 06:22:00,
2013-07-29 01:37:00,82.0,72.5,29.93,South,180,2.7,-999.0,73,-99.99,,,0.00,Acu-Link.com,2013-07-29 06:37:00,
2013-07-29 01:52:00,81.9,72.7,29.93,SE,135,5.8,-999.0,74,-99.99,,,0.00,Acu-Link.com,2013-07-29 06:52:00,
2013-07-29 02:07:00,81.5,72.8,29.93,SSE,157,3.1,-999.0,75,-99.99,,,0.00,Acu-Link.com,2013-07-29 07:07:00,
2013-07-29 02:22:00,81.5,72.8,29.93,ESE,112,2.7,-999.0,75,-99.99,,,0.00,Acu-Link.com,2013-07-29 07:22:00,
2013-07-29 02:38:00,81.5,72.8,29.93,NNE,22,0.0,-999.0,75,-99.99,,,0.00,Acu-Link.com,2013-07-29 07:38:00,
2013-07-29 02:53:00,81.3,73.0,29.94,WNW,292,2.2,-999.0,76,-99.99,,,0.00,Acu-Link.com,2013-07-29 07:53:00,
2013-07-29 03:08:00,81.1,72.8,29.93,ENE,67,3.8,-999.0,76,-99.99,,,0.00,Acu-Link.com,2013-07-29 08:08:00,
2013-07-29 03:23:00,80.8,72.9,29.93,ESE,112,4.3,-999.0,77,-99.99,,,0.00,Acu-Link.com,2013-07-29 08:23:00,
2013-07-29 03:38:00,80.8,72.9,29.94,East,90,6.3,-999.0,77,-99.99,,,0.00,Acu-Link.com,2013-07-29 08:38:00,
2013-07-29 03:54:00,80.6,72.7,29.94,WSW,247,3.8,-999.0,77,-99.99,,,0.00,Acu-Link.com,2013-07-29 08:54:00,
2013-07-29 04:09:00,80.6,72.7,29.94,NNE,22,3.1,-999.0,77,-99.99,,,0.00,Acu-Link.com,2013-07-29 09:09:00,
2013-07-29 04:24:00,80.2,72.7,29.94,SSW,202,3.1,-999.0,78,-99.99,,,0.00,Acu-Link.com,2013-07-29 09:24:00,
2013-07-29 04:40:00,80.1,72.6,29.95,ESE,112,3.8,-999.0,78,-99.99,,,0.00,Acu-Link.com,2013-07-29 09:40:00,
2013-07-29 04:55:00,79.9,72.8,29.94,SSE,157,4.7,-999.0,79,-99.99,,,0.00,Acu-Link.com,2013-07-29 09:55:00,
2013-07-29 05:10:00,79.9,72.8,29.95,ENE,67,5.1,-999.0,79,-99.99,,,0.00,Acu-Link.com,2013-07-29 10:10:00,
2013-07-29 05:25:00,79.5,72.4,29.95,ENE,67,4.3,-999.0,79,-99.99,,,0.00,Acu-Link.com,2013-07-29 10:25:00,
2013-07-29 05:41:00,79.3,72.6,29.95,NE,45,4.7,-999.0,80,-99.99,,,0.00,Acu-Link.com,2013-07-29 10:41:00,
2013-07-29 05:56:00,79.0,72.6,29.95,South,180,2.2,-999.0,81,-99.99,,,0.00,Acu-Link.com,2013-07-29 10:56:00,
2013-07-29 06:11:00,78.8,72.8,29.95,ENE,67,2.2,-999.0,82,-99.99,,,0.00,Acu-Link.com,2013-07-29 11:11:00,
2013-07-29 06:26:00,78.4,72.5,29.96,SSW,202,2.2,-999.0,82,-99.99,,,0.00,Acu-Link.com,2013-07-29 11:26:00,
2013-07-29 06:41:00,78.3,72.7,29.96,ENE,67,2.7,-999.0,83,-99.99,,,0.00,Acu-Link.com,2013-07-29 11:41:00,
2013-07-29 06:57:00,78.3,72.7,29.96,ESE,112,3.8,-999.0,83,-99.99,,,0.00,Acu-Link.com,2013-07-29 11:57:00,
2013-07-29 07:12:00,78.4,72.8,29.97,ESE,112,2.7,-999.0,83,-99.99,,,0.00,Acu-Link.com,2013-07-29 12:12:00,
2013-07-29 07:27:00,78.8,73.2,29.97,ESE,112,4.3,-999.0,83,-99.99,,,0.00,Acu-Link.com,2013-07-29 12:27:00,
2013-07-29 07:42:00,79.3,73.7,29.98,South,180,3.8,-999.0,83,-99.99,,,0.00,Acu-Link.com,2013-07-29 12:42:00,
2013-07-29 07:58:00,79.2,73.5,29.98,ENE,67,2.7,-999.0,83,-99.99,,,0.00,Acu-Link.com,2013-07-29 12:58:00,
2013-07-29 08:13:00,79.5,73.9,29.98,ESE,112,3.1,-999.0,83,-99.99,,,0.00,Acu-Link.com,2013-07-29 13:13:00,
2013-07-29 08:28:00,80.1,74.4,29.99,North,0,4.3,-999.0,83,-99.99,,,0.00,Acu-Link.com,2013-07-29 13:28:00,
2013-07-29 08:44:00,80.4,74.4,29.99,North,0,1.6,-999.0,82,-99.99,,,0.00,Acu-Link.com,2013-07-29 13:44:00,
2013-07-29 08:59:00,80.4,74.4,29.99,ESE,112,6.7,-999.0,82,-99.99,,,0.00,Acu-Link.com,2013-07-29 13:59:00,
2013-07-29 09:14:00,80.8,74.8,29.99,ESE,112,11.0,-999.0,82,-99.99,,,0.00,Acu-Link.com,2013-07-29 14:14:00,
2013-07-29 09:29:00,81.9,75.1,30.00,WNW,292,1.6,-999.0,80,-99.99,,,0.00,Acu-Link.com,2013-07-29 14:29:00,
2013-07-29 09:44:00,82.8,74.8,29.99,WSW,247,3.8,-999.0,77,-99.99,,,0.00,Acu-Link.com,2013-07-29 14:44:00,
2013-07-29 10:00:00,82.0,74.5,29.99,ESE,112,3.1,-999.0,78,-99.99,,,0.00,Acu-Link.com,2013-07-29 15:00:00,
2013-07-29 10:15:00,83.5,74.7,29.99,SSE,157,8.9,-999.0,75,-99.99,,,0.00,Acu-Link.com,2013-07-29 15:15:00,
2013-07-29 10:30:00,84.4,75.2,29.99,NNE,22,3.1,-999.0,74,-99.99,,,0.00,Acu-Link.com,2013-07-29 15:30:00,
2013-07-29 10:46:00,84.9,74.9,30.00,ESE,112,4.7,-999.0,72,-99.99,,,0.00,Acu-Link.com,2013-07-29 15:46:00,
2013-07-29 11:16:00,87.6,74.8,29.99,SW,225,5.8,-999.0,66,-99.99,,,0.00,Acu-Link.com,2013-07-29 16:16:00,
2013-07-29 11:32:00,88.7,75.8,30.00,ESE,112,2.7,-999.0,66,-99.99,,,0.00,Acu-Link.com,2013-07-29 16:32:00,
2013-07-29 11:47:00,90.1,75.3,29.99,WNW,292,5.8,-999.0,62,-99.99,,,0.00,Acu-Link.com,2013-07-29 16:47:00,
2013-07-29 12:02:00,90.9,76.0,30.00,SE,135,2.7,-999.0,62,-99.99,,,0.00,Acu-Link.com,2013-07-29 17:02:00,
2013-07-29 12:17:00,90.7,74.8,29.99,North,0,4.3,-999.0,60,-99.99,,,0.00,Acu-Link.com,2013-07-29 17:17:00,
2013-07-29 12:33:00,89.6,74.3,29.99,NNE,22,5.8,-999.0,61,-99.99,,,0.00,Acu-Link.com,2013-07-29 17:33:00,
2013-07-29 12:48:00,91.6,75.2,29.99,ENE,67,5.8,-999.0,59,-99.99,,,0.00,Acu-Link.com,2013-07-29 17:48:00,
2013-07-29 13:03:00,92.8,75.3,29.99,ENE,67,7.4,-999.0,57,-99.99,,,0.00,Acu-Link.com,2013-07-29 18:03:00,
2013-07-29 13:19:00,91.9,74.5,29.99,WNW,292,4.3,-999.0,57,-99.99,,,0.00,Acu-Link.com,2013-07-29 18:19:00,
2013-07-29 13:34:00,91.2,74.3,29.98,ESE,112,3.8,-999.0,58,-99.99,,,0.00,Acu-Link.com,2013-07-29 18:34:00,
2013-07-29 13:49:00,92.5,74.5,29.98,SE,135,5.1,-999.0,56,-99.99,,,0.00,Acu-Link.com,2013-07-29 18:49:00,
2013-07-29 14:04:00,92.7,74.1,29.97,ESE,112,4.7,-999.0,55,-99.99,,,0.00,Acu-Link.com,2013-07-29 19:04:00,
2013-07-29 14:20:00,91.9,73.4,29.97,SW,225,3.1,-999.0,55,-99.99,,,0.00,Acu-Link.com,2013-07-29 19:20:00,
2013-07-29 14:35:00,95.2,74.7,29.96,West,270,5.8,-999.0,52,-99.99,,,0.00,Acu-Link.com,2013-07-29 19:35:00,
2013-07-29 14:50:00,93.4,71.9,29.97,East,90,8.9,-999.0,50,-99.99,,,0.00,Acu-Link.com,2013-07-29 19:50:00,
2013-07-29 15:05:00,96.4,74.1,29.96,East,90,5.8,-999.0,49,-99.99,,,0.00,Acu-Link.com,2013-07-29 20:05:00,
2013-07-29 15:21:00,96.1,72.5,29.96,West,270,2.7,-999.0,47,-99.99,,,0.00,Acu-Link.com,2013-07-29 20:21:00,
2013-07-29 15:36:00,95.5,73.3,29.95,South,180,6.7,-999.0,49,-99.99,,,0.00,Acu-Link.com,2013-07-29 20:36:00,
2013-07-29 15:51:00,95.7,73.4,29.95,ESE,112,3.1,-999.0,49,-99.99,,,0.00,Acu-Link.com,2013-07-29 20:51:00,
2013-07-29 16:07:00,95.0,72.2,29.95,ESE,112,5.8,-999.0,48,-99.99,,,0.00,Acu-Link.com,2013-07-29 21:07:00,
2013-07-29 16:22:00,95.4,72.5,29.94,SSW,202,8.3,-999.0,48,-99.99,,,0.00,Acu-Link.com,2013-07-29 21:22:00,
2013-07-29 16:37:00,98.2,72.5,29.94,SSW,202,6.3,-999.0,44,-99.99,,,0.00,Acu-Link.com,2013-07-29 21:37:00,
2013-07-29 16:53:00,97.5,72.5,29.93,NNE,22,4.3,-999.0,45,-99.99,,,0.00,Acu-Link.com,2013-07-29 21:53:00,
2013-07-29 17:08:00,97.7,72.7,29.93,ESE,112,3.8,-999.0,45,-99.99,,,0.00,Acu-Link.com,2013-07-29 22:08:00,
2013-07-29 17:23:00,97.7,72.0,29.93,SSW,202,5.1,-999.0,44,-99.99,,,0.00,Acu-Link.com,2013-07-29 22:23:00,
2013-07-29 17:38:00,97.3,72.4,29.93,NNE,22,3.8,-999.0,45,-99.99,,,0.00,Acu-Link.com,2013-07-29 22:38:00,
2013-07-29 17:53:00,97.0,72.1,29.92,South,180,5.8,-999.0,45,-99.99,,,0.00,Acu-Link.com,2013-07-29 22:53:00,
2013-07-29 18:09:00,97.2,71.6,29.91,SSE,157,4.7,-999.0,44,-99.99,,,0.00,Acu-Link.com,2013-07-29 23:09:00,
2013-07-29 18:24:00,96.6,71.1,29.91,NE,45,4.3,-999.0,44,-99.99,,,0.00,Acu-Link.com,2013-07-29 23:24:00,
2013-07-29 18:39:00,97.3,71.7,29.91,ESE,112,6.3,-999.0,44,-99.99,,,0.00,Acu-Link.com,2013-07-29 23:39:00,
2013-07-29 18:55:00,96.1,70.6,29.91,SSW,202,8.3,-999.0,44,-99.99,,,0.00,Acu-Link.com,2013-07-29 23:55:00,
2013-07-29 19:10:00,95.2,68.4,29.91,East,90,5.1,-999.0,42,-99.99,,,0.00,Acu-Link.com,2013-07-30 00:10:00,
2013-07-29 19:25:00,95.4,67.9,29.91,WNW,292,3.1,-999.0,41,-99.99,,,0.00,Acu-Link.com,2013-07-30 00:25:00,
2013-07-29 19:40:00,94.3,66.2,29.92,ENE,67,6.3,-999.0,40,-99.99,,,0.00,Acu-Link.com,2013-07-30 00:40:00,
2013-07-29 19:56:00,93.7,65.7,29.92,SSE,157,7.4,-999.0,40,-99.99,,,0.00,Acu-Link.com,2013-07-30 00:56:00,
2013-07-29 20:57:00,91.8,64.0,29.93,West,270,2.7,-999.0,40,-99.99,,,0.00,Acu-Link.com,2013-07-30 01:57:00,
2013-07-29 21:27:00,90.3,64.1,29.94,ESE,112,1.6,-999.0,42,-99.99,,,0.00,Acu-Link.com,2013-07-30 02:27:00,
2013-07-29 21:43:00,90.1,63.9,29.95,NNE,22,2.7,-999.0,42,-99.99,,,0.00,Acu-Link.com,2013-07-30 02:43:00,
2013-07-29 21:58:00,90.0,64.4,29.96,ESE,112,6.7,-999.0,43,-99.99,,,0.00,Acu-Link.com,2013-07-30 02:58:00,
2013-07-29 22:29:00,89.4,63.9,29.96,ESE,112,3.1,-999.0,43,-99.99,,,0.00,Acu-Link.com,2013-07-30 03:29:00,
2013-07-29 22:44:00,89.1,63.6,29.96,NNE,22,4.3,-999.0,43,-99.99,,,0.00,Acu-Link.com,2013-07-30 03:44:00,
2013-07-29 22:59:00,89.1,64.3,29.97,South,180,4.7,-999.0,44,-99.99,,,0.00,Acu-Link.com,2013-07-30 03:59:00,
2013-07-29 23:14:00,89.4,65.2,29.97,SE,135,6.7,-999.0,45,-99.99,,,0.00,Acu-Link.com,2013-07-30 04:14:00,
2013-07-29 23:29:00,88.9,64.8,29.97,NNE,22,4.3,-999.0,45,-99.99,,,0.00,Acu-Link.com,2013-07-30 04:29:00,
2013-07-29 23:45:00,88.2,64.7,29.97,ESE,112,3.1,-999.0,46,-99.99,,,0.00,Acu-Link.com,2013-07-30 04:45:00,